FDX1574 KMEM-KIND

Flight info

Callsign FDX1574
Flight time 1h 3m
Altitude 33000
Route CRSON7 HUMMS PXV EMBRR SMUKE3
Aircraft A306/H-SDE3FGHIRWY/LB1

Departure

Time 2026-05-05 20:59
Airport Memphis International Airport (KMEM)

Arrival

Time 2026-05-05 22:02
Airport Indianapolis International Airport (KIND)
Time Latitude Longitude Altitude Speed Heading
2026-05-05 20:59 35.18448 -89.95762 8744 ft 324 kts 36°
2026-05-05 20:59 35.20214 -89.94027 9619 ft 328 kts 34°
2026-05-05 20:59 35.22028 -89.92287 10312 ft 336 kts 33°
2026-05-05 20:59 35.23935 -89.90486 10675 ft 356 kts 33°
2026-05-05 21:00 35.25949 -89.88593 10991 ft 374 kts 32°
2026-05-05 21:00 35.28061 -89.86609 11283 ft 391 kts 32°
2026-05-05 21:00 35.30267 -89.84539 11585 ft 405 kts 33°
2026-05-05 21:00 35.32527 -89.82414 12067 ft 412 kts 33°
2026-05-05 21:01 35.34812 -89.80263 12685 ft 415 kts 32°
2026-05-05 21:01 35.37111 -89.78097 13335 ft 417 kts 32°
2026-05-05 21:01 35.38637 -89.76660 13757 ft 418 kts 32°
2026-05-05 21:01 35.40951 -89.74481 14273 ft 422 kts 32°
2026-05-05 21:02 35.43297 -89.72272 14783 ft 426 kts 32°
2026-05-05 21:02 35.45667 -89.70039 15308 ft 430 kts 32°
2026-05-05 21:02 35.48045 -89.67796 15813 ft 434 kts 32°
2026-05-05 21:02 35.50456 -89.65522 16377 ft 438 kts 32°
2026-05-05 21:03 35.52880 -89.63233 16854 ft 443 kts 33°
2026-05-05 21:03 35.55336 -89.60911 17353 ft 447 kts 33°
2026-05-05 21:03 35.57809 -89.58571 17873 ft 450 kts 33°
2026-05-05 21:03 35.60299 -89.56213 18326 ft 454 kts 33°
2026-05-05 21:04 35.62807 -89.53837 18746 ft 456 kts 33°
2026-05-05 21:04 35.65339 -89.51459 19186 ft 458 kts 31°
2026-05-05 21:04 35.67995 -89.49297 19604 ft 457 kts 26°
2026-05-05 21:04 35.70717 -89.47251 20025 ft 459 kts 26°
2026-05-05 21:05 35.73422 -89.45241 20428 ft 461 kts 25°
2026-05-05 21:05 35.76183 -89.43187 20869 ft 463 kts 26°
2026-05-05 21:05 35.78947 -89.41127 21298 ft 465 kts 26°
2026-05-05 21:05 35.81728 -89.39051 21672 ft 468 kts 26°
2026-05-05 21:06 35.84520 -89.36965 22038 ft 470 kts 26°
2026-05-05 21:06 35.87330 -89.34862 22402 ft 473 kts 26°
2026-05-05 21:06 35.90150 -89.32749 22768 ft 475 kts 25°
2026-05-05 21:06 35.92990 -89.30620 23126 ft 478 kts 25°
2026-05-05 21:07 35.95839 -89.28481 23462 ft 480 kts 25°
2026-05-05 21:07 35.98707 -89.26327 23747 ft 483 kts 25°
2026-05-05 21:07 36.01586 -89.24163 24061 ft 485 kts 25°
2026-05-05 21:07 36.04475 -89.21989 24344 ft 486 kts 25°
2026-05-05 21:08 36.07367 -89.19810 24645 ft 488 kts 25°
2026-05-05 21:08 36.10273 -89.17619 24931 ft 489 kts 25°
2026-05-05 21:08 36.13152 -89.15447 25211 ft 491 kts 25°
2026-05-05 21:08 36.16070 -89.13243 25477 ft 493 kts 24°
2026-05-05 21:09 36.19045 -89.10995 25765 ft 495 kts 24°
2026-05-05 21:09 36.21955 -89.08793 26034 ft 497 kts 24°
2026-05-05 21:09 36.24909 -89.06557 26305 ft 498 kts 24°
2026-05-05 21:09 36.27868 -89.04314 26578 ft 500 kts 24°
2026-05-05 21:10 36.30838 -89.02061 26824 ft 501 kts 24°
2026-05-05 21:10 36.33821 -88.99797 27048 ft 503 kts 24°
2026-05-05 21:10 36.36809 -88.97527 27284 ft 504 kts 24°
2026-05-05 21:10 36.39801 -88.95256 27504 ft 505 kts 24°
2026-05-05 21:11 36.42808 -88.92973 27734 ft 507 kts 24°
2026-05-05 21:11 36.45818 -88.90686 27948 ft 508 kts 23°
2026-05-05 21:11 36.48832 -88.88392 28273 ft 507 kts 23°
2026-05-05 21:11 36.51841 -88.86097 28614 ft 506 kts 23°
2026-05-05 21:12 36.54846 -88.83805 28908 ft 506 kts 24°
2026-05-05 21:12 36.57851 -88.81512 29209 ft 505 kts 24°
2026-05-05 21:12 36.60843 -88.79225 29568 ft 504 kts 24°
2026-05-05 21:12 36.63831 -88.76940 29895 ft 502 kts 24°
2026-05-05 21:13 36.66804 -88.74664 30170 ft 502 kts 24°
2026-05-05 21:13 36.69785 -88.72382 30422 ft 502 kts 23°
2026-05-05 21:13 36.72762 -88.70102 30681 ft 502 kts 23°
2026-05-05 21:13 36.75730 -88.67827 30983 ft 501 kts 24°
2026-05-05 21:14 36.78664 -88.65575 31263 ft 500 kts 23°
2026-05-05 21:14 36.81627 -88.63297 31542 ft 500 kts 23°
2026-05-05 21:14 36.84588 -88.61019 31802 ft 500 kts 22°
2026-05-05 21:14 36.87549 -88.58739 32101 ft 499 kts 22°
2026-05-05 21:15 36.90506 -88.56459 32365 ft 499 kts 22°
2026-05-05 21:15 36.93464 -88.54177 32614 ft 499 kts 22°
2026-05-05 21:15 36.96414 -88.51900 32802 ft 499 kts 21°
2026-05-05 21:15 36.99343 -88.49630 32841 ft 490 kts 22°
2026-05-05 21:16 37.05063 -88.45186 32835 ft 480 kts 21°
2026-05-05 21:16 37.10728 -88.40799 32816 ft 478 kts 21°
2026-05-05 21:17 37.16389 -88.36412 32826 ft 478 kts 21°
2026-05-05 21:17 37.22040 -88.32019 32831 ft 478 kts 21°
2026-05-05 21:18 37.27706 -88.27609 32827 ft 480 kts 21°
2026-05-05 21:18 37.33381 -88.23176 32830 ft 480 kts 21°
2026-05-05 21:19 37.39054 -88.18734 32830 ft 480 kts 21°
2026-05-05 21:19 37.44729 -88.14284 32833 ft 480 kts 21°
2026-05-05 21:20 37.50405 -88.09827 32840 ft 481 kts 21°
2026-05-05 21:20 37.56092 -88.05355 32840 ft 481 kts 21°
2026-05-05 21:21 37.61781 -88.00870 32846 ft 481 kts 21°
2026-05-05 21:21 37.67452 -87.96393 32844 ft 481 kts 21°
2026-05-05 21:22 37.73135 -87.91897 32835 ft 482 kts 21°
2026-05-05 21:22 37.78838 -87.87381 32840 ft 484 kts 21°
2026-05-05 21:23 37.84549 -87.82846 32841 ft 485 kts 21°
2026-05-05 21:23 37.90263 -87.78301 32838 ft 485 kts 21°
2026-05-05 21:24 37.96029 -87.73920 32843 ft 480 kts 18°
2026-05-05 21:24 38.01855 -87.69747 32834 ft 480 kts 18°
2026-05-05 21:25 38.07662 -87.65571 32830 ft 479 kts 18°
2026-05-05 21:25 38.13460 -87.61388 32832 ft 479 kts 18°
2026-05-05 21:26 38.19236 -87.57216 32843 ft 485 kts 18°
2026-05-05 21:26 38.25172 -87.52922 32836 ft 495 kts 19°
2026-05-05 21:27 38.31161 -87.48568 32831 ft 496 kts 19°
2026-05-05 21:27 38.37157 -87.44200 32838 ft 496 kts 19°
2026-05-05 21:28 38.43103 -87.39855 32830 ft 485 kts 19°
2026-05-05 21:28 38.48917 -87.35605 32831 ft 479 kts 18°
2026-05-05 21:29 38.54746 -87.31347 32837 ft 479 kts 18°
2026-05-05 21:29 38.60523 -87.27115 32835 ft 479 kts 18°
2026-05-05 21:30 38.66307 -87.22863 32831 ft 479 kts 18°
2026-05-05 21:30 38.72034 -87.18613 32831 ft 479 kts 19°
2026-05-05 21:31 38.77802 -87.14317 32835 ft 479 kts 18°
2026-05-05 21:31 38.83558 -87.10020 32839 ft 479 kts 18°
2026-05-05 21:32 38.89323 -87.05713 32837 ft 479 kts 18°
2026-05-05 21:32 38.95081 -87.01406 32831 ft 478 kts 18°
2026-05-05 21:33 39.00867 -86.97206 32828 ft 477 kts 17°
2026-05-05 21:33 39.06665 -86.93021 32828 ft 477 kts 17°
2026-05-05 21:34 39.11473 -86.89523 32510 ft 477 kts 18°
2026-05-05 21:34 39.14349 -86.87327 31466 ft 483 kts 20°
2026-05-05 21:34 39.17249 -86.85075 30330 ft 489 kts 22°
2026-05-05 21:35 39.20162 -86.82799 29348 ft 489 kts 23°
2026-05-05 21:35 39.23042 -86.80541 28631 ft 480 kts 23°
2026-05-05 21:35 39.25886 -86.78295 27744 ft 478 kts 25°
2026-05-05 21:35 39.28624 -86.75877 26991 ft 475 kts 28°
2026-05-05 21:36 39.31304 -86.73412 26268 ft 470 kts 28°
2026-05-05 21:36 39.33931 -86.70983 25718 ft 460 kts 28°
2026-05-05 21:36 39.36529 -86.68588 24941 ft 457 kts 28°
2026-05-05 21:36 39.39084 -86.66233 24732 ft 442 kts 29°
2026-05-05 21:37 39.41465 -86.63794 24607 ft 437 kts 37°
2026-05-05 21:37 39.43422 -86.60756 24489 ft 445 kts 54°
2026-05-05 21:37 39.44712 -86.57091 24372 ft 451 kts 72°
2026-05-05 21:37 39.45191 -86.53086 24161 ft 452 kts 90°
2026-05-05 21:38 39.44820 -86.49077 23946 ft 446 kts 107°
2026-05-05 21:38 39.43663 -86.45422 23703 ft 435 kts 125°
2026-05-05 21:38 39.41856 -86.42368 23457 ft 418 kts 142°
2026-05-05 21:38 39.39647 -86.40120 23184 ft 393 kts 157°
2026-05-05 21:39 39.37244 -86.38689 22899 ft 370 kts 171°
2026-05-05 21:39 39.34807 -86.38019 22621 ft 348 kts 183°
2026-05-05 21:39 39.32461 -86.38017 22347 ft 328 kts 195°
2026-05-05 21:39 39.30291 -86.38578 22066 ft 310 kts 206°
2026-05-05 21:40 39.28346 -86.39592 21791 ft 294 kts 216°
2026-05-05 21:40 39.26643 -86.40932 21522 ft 281 kts 221°
2026-05-05 21:40 39.25061 -86.42360 21277 ft 273 kts 223°
2026-05-05 21:40 39.23541 -86.43751 21133 ft 263 kts 223°
2026-05-05 21:41 39.22047 -86.45121 20994 ft 263 kts 223°
2026-05-05 21:41 39.20550 -86.46488 20882 ft 265 kts 223°
2026-05-05 21:41 39.19034 -86.47989 20801 ft 284 kts 227°
2026-05-05 21:41 39.17373 -86.50227 20684 ft 304 kts 236°
2026-05-05 21:42 39.16206 -86.52583 20580 ft 319 kts 246°
2026-05-05 21:42 39.15387 -86.55253 20460 ft 321 kts 255°
2026-05-05 21:42 39.14986 -86.58084 20339 ft 320 kts 265°
2026-05-05 21:42 39.15014 -86.60947 20207 ft 320 kts 274°
2026-05-05 21:43 39.15469 -86.63757 20094 ft 322 kts 284°
2026-05-05 21:43 39.16340 -86.66428 19963 ft 326 kts 294°
2026-05-05 21:43 39.17619 -86.68868 19847 ft 330 kts 304°
2026-05-05 21:43 39.19236 -86.70917 19703 ft 322 kts 314°
2026-05-05 21:44 39.21091 -86.72490 19567 ft 316 kts 324°
2026-05-05 21:44 39.23102 -86.73565 19428 ft 311 kts 334°
2026-05-05 21:44 39.25236 -86.74149 19252 ft 320 kts 345°
2026-05-05 21:44 39.27504 -86.74219 18788 ft 333 kts 356°
2026-05-05 21:45 39.29821 -86.73662 18243 ft 345 kts
2026-05-05 21:45 39.32071 -86.72451 17653 ft 356 kts 22°
2026-05-05 21:45 39.34183 -86.70717 17038 ft 362 kts 29°
2026-05-05 21:45 39.36250 -86.68843 16429 ft 364 kts 30°
2026-05-05 21:46 39.38317 -86.66953 15847 ft 364 kts 30°
2026-05-05 21:46 39.40381 -86.65037 15263 ft 366 kts 33°
2026-05-05 21:46 39.42264 -86.62804 14685 ft 370 kts 45°
2026-05-05 21:46 39.43761 -86.60080 14131 ft 374 kts 60°
2026-05-05 21:47 39.44774 -86.56966 13587 ft 378 kts 74°
2026-05-05 21:47 39.45211 -86.53616 12948 ft 377 kts 90°
2026-05-05 21:47 39.45040 -86.50241 12365 ft 375 kts 105°
2026-05-05 21:47 39.44228 -86.47061 11845 ft 371 kts 121°
2026-05-05 21:48 39.42916 -86.44208 11238 ft 368 kts 133°
2026-05-05 21:48 39.41192 -86.41766 10692 ft 366 kts 143°
2026-05-05 21:48 39.39893 -86.40394 10254 ft 364 kts 152°
2026-05-05 21:48 39.37684 -86.38887 9800 ft 354 kts 165°
2026-05-05 21:49 39.34604 -86.37941 8897 ft 333 kts 180°
2026-05-05 21:49 39.32343 -86.37997 8289 ft 318 kts 191°
2026-05-05 21:49 39.30224 -86.38581 7684 ft 305 kts 200°
2026-05-05 21:49 39.28899 -86.39234 7283 ft 298 kts 206°
2026-05-05 21:50 39.27111 -86.40523 6693 ft 290 kts 214°
2026-05-05 21:50 39.25472 -86.41987 6108 ft 283 kts 216°
2026-05-05 21:50 39.23884 -86.43448 5501 ft 277 kts 216°
2026-05-05 21:50 39.22335 -86.44868 5077 ft 267 kts 216°
2026-05-05 21:51 39.20884 -86.46189 4964 ft 248 kts 216°
2026-05-05 21:51 39.19543 -86.47446 4953 ft 230 kts 219°
2026-05-05 21:51 39.18413 -86.48870 4961 ft 226 kts 230°
2026-05-05 21:51 39.17624 -86.50620 4964 ft 229 kts 246°
2026-05-05 21:52 39.17790 -86.54769 4967 ft 252 kts 291°
2026-05-05 21:52 39.18975 -86.56503 4963 ft 268 kts 319°
2026-05-05 21:52 39.20752 -86.57362 4966 ft 282 kts 350°
2026-05-05 21:53 39.22717 -86.57180 4974 ft 283 kts
2026-05-05 21:53 39.24638 -86.56732 4965 ft 278 kts
2026-05-05 21:53 39.26540 -86.56273 4961 ft 278 kts
2026-05-05 21:53 39.28453 -86.55830 4969 ft 279 kts
2026-05-05 21:54 39.30370 -86.55401 4972 ft 279 kts
2026-05-05 21:54 39.32287 -86.54978 4968 ft 279 kts
2026-05-05 21:54 39.34180 -86.54566 4964 ft 279 kts
2026-05-05 21:54 39.36072 -86.54154 4939 ft 268 kts
2026-05-05 21:55 39.37887 -86.53753 4989 ft 257 kts
2026-05-05 21:55 39.39640 -86.53371 4989 ft 254 kts
2026-05-05 21:55 39.41371 -86.52997 4980 ft 256 kts
2026-05-05 21:55 39.43133 -86.52619 4985 ft 257 kts
2026-05-05 21:56 39.44897 -86.52239 4981 ft 257 kts
2026-05-05 21:56 39.46661 -86.51860 4936 ft 257 kts
2026-05-05 21:56 39.48425 -86.51480 4796 ft 257 kts
2026-05-05 21:56 39.50193 -86.51099 4686 ft 257 kts
2026-05-05 21:57 39.51952 -86.50720 4583 ft 256 kts
2026-05-05 21:57 39.53698 -86.50261 4508 ft 256 kts 17°
2026-05-05 21:57 39.55251 -86.49226 4401 ft 249 kts 37°
2026-05-05 21:57 39.56509 -86.47711 4306 ft 246 kts 47°
2026-05-05 21:58 39.57698 -86.46129 4194 ft 244 kts 45°
2026-05-05 21:58 39.58896 -86.44605 3948 ft 237 kts 44°
2026-05-05 21:58 39.60066 -86.43139 3616 ft 230 kts 45°
2026-05-05 21:58 39.61185 -86.41711 3284 ft 218 kts 44°
2026-05-05 21:59 39.62252 -86.40347 3008 ft 213 kts 44°
2026-05-05 21:59 39.63294 -86.39021 2744 ft 203 kts 43°
2026-05-05 21:59 39.64250 -86.37803 2469 ft 183 kts 43°
2026-05-05 21:59 39.65114 -86.36702 2223 ft 165 kts 43°
2026-05-05 22:00 39.65886 -86.35716 2017 ft 146 kts 39°
2026-05-05 22:00 39.66570 -86.34845 1830 ft 133 kts 40°
2026-05-05 22:00 39.67216 -86.34021 1638 ft 131 kts 40°
2026-05-05 22:00 39.67867 -86.33190 1450 ft 131 kts 39°
2026-05-05 22:01 39.68512 -86.32352 1281 ft 131 kts 42°
2026-05-05 22:01 39.69161 -86.31520 1085 ft 128 kts 32°
2026-05-05 22:01 39.69799 -86.30724 886 ft 127 kts 39°
2026-05-05 22:01 39.70402 -86.29952 794 ft 112 kts 40°
2026-05-05 22:02 39.70845 -86.29394 786 ft 56 kts 44°
2026-05-05 22:02 39.70962 -86.29243 787 ft 15 kts 44°
2026-05-05 22:02 39.71071 -86.29107 787 ft 23 kts 44°
2026-05-05 22:02 39.71153 -86.28976 789 ft 13 kts 87°
2026-05-05 22:03 39.71119 -86.28884 788 ft 11 kts 103°
2026-05-05 22:03 39.71150 -86.28805 788 ft 10 kts 43°
2026-05-05 22:03 39.71195 -86.28749 788 ft 8 kts 52°
2026-05-05 22:03 39.71187 -86.28695 787 ft 6 kts 132°
2026-05-05 22:04 39.71159 -86.28660 787 ft 5 kts 134°
2026-05-05 22:04 39.71156 -86.28656 787 ft 0 kts 135°
2026-05-05 22:04 39.71143 -86.28639 787 ft 4 kts 135°
2026-05-05 22:04 39.71127 -86.28591 787 ft 8 kts 109°
2026-05-05 22:05 39.71096 -86.28539 787 ft 7 kts 136°
2026-05-05 22:05 39.71080 -86.28517 787 ft 0 kts 134°